Year,Month,Day,Hour,Minute,Value (Times are PST for windspeed in km/hr)
2009,09,20,00,00,7.90
2009,09,20,00,01,7.90
2009,09,20,00,02,7.40
2009,09,20,00,03,4.00
2009,09,20,00,04,4.50
2009,09,20,00,05,7.70
2009,09,20,00,06,7.10
2009,09,20,00,07,12.50
2009,09,20,00,08,7.20
2009,09,20,00,09,7.80
2009,09,20,00,10,10.10
2009,09,20,00,11,5.90
2009,09,20,00,12,12.10
2009,09,20,00,13,4.50
2009,09,20,00,14,6.50
2009,09,20,00,15,3.10
2009,09,20,00,16,4.40
2009,09,20,00,17,6.00
2009,09,20,00,18,7.60
2009,09,20,00,19,7.20
2009,09,20,00,20,8.40
2009,09,20,00,21,8.30
2009,09,20,00,22,9.90
2009,09,20,00,23,6.40
2009,09,20,00,24,7.80
2009,09,20,00,25,8.40
2009,09,20,00,26,11.20
2009,09,20,00,27,16.00
2009,09,20,00,28,12.60
2009,09,20,00,29,8.80
2009,09,20,00,30,5.50
2009,09,20,00,31,10.10
2009,09,20,00,32,12.10
2009,09,20,00,33,5.50
2009,09,20,00,34,9.90
2009,09,20,00,35,7.60
2009,09,20,00,36,6.70
2009,09,20,00,37,7.80
2009,09,20,00,38,7.50
2009,09,20,00,39,10.90
2009,09,20,00,40,6.80
2009,09,20,00,41,6.00
2009,09,20,00,42,12.40
2009,09,20,00,43,8.90
2009,09,20,00,44,8.30
2009,09,20,00,45,10.20
2009,09,20,00,46,4.00
2009,09,20,00,47,6.30
2009,09,20,00,48,4.30
2009,09,20,00,49,13.00
2009,09,20,00,50,9.00
2009,09,20,00,51,13.10
2009,09,20,00,52,12.60
2009,09,20,00,53,11.40
2009,09,20,00,54,11.90
2009,09,20,00,55,9.50
2009,09,20,00,56,8.00
2009,09,20,00,57,5.50
2009,09,20,00,58,12.40
2009,09,20,00,59,11.50
2009,09,20,01,00,13.30
2009,09,20,01,01,8.50
2009,09,20,01,02,1.90
2009,09,20,01,03,2.50
2009,09,20,01,04,10.70
2009,09,20,01,05,3.80
2009,09,20,01,06,12.20
2009,09,20,01,07,12.00
2009,09,20,01,08,8.90
2009,09,20,01,09,9.70
2009,09,20,01,10,10.80
2009,09,20,01,11,8.20
2009,09,20,01,12,6.50
2009,09,20,01,13,9.80
2009,09,20,01,14,9.40
2009,09,20,01,15,9.70
2009,09,20,01,16,16.20
2009,09,20,01,17,11.50
2009,09,20,01,18,9.00
2009,09,20,01,19,8.80
2009,09,20,01,20,12.30
2009,09,20,01,21,9.30
2009,09,20,01,22,4.50
2009,09,20,01,23,9.80
2009,09,20,01,24,7.50
2009,09,20,01,25,8.50
2009,09,20,01,26,5.10
2009,09,20,01,27,8.90
2009,09,20,01,28,11.70
2009,09,20,01,29,9.10
2009,09,20,01,30,9.70
2009,09,20,01,31,7.20
2009,09,20,01,32,8.80
2009,09,20,01,33,6.90
2009,09,20,01,34,8.40
2009,09,20,01,35,3.40
2009,09,20,01,36,3.50
2009,09,20,01,37,3.80
2009,09,20,01,38,6.10
2009,09,20,01,39,8.90
2009,09,20,01,40,2.60
2009,09,20,01,41,2.90
2009,09,20,01,42,13.10
2009,09,20,01,43,8.30
2009,09,20,01,44,6.90
2009,09,20,01,45,7.30
2009,09,20,01,46,4.90
2009,09,20,01,47,10.70
2009,09,20,01,48,6.40
2009,09,20,01,49,7.50
2009,09,20,01,50,2.40
2009,09,20,01,51,1.30
2009,09,20,01,52,0.10
2009,09,20,01,53,4.70
2009,09,20,01,54,2.30
2009,09,20,01,55,5.80
2009,09,20,01,56,1.70
2009,09,20,01,57,5.00
2009,09,20,01,58,5.20
2009,09,20,01,59,1.50
2009,09,20,02,00,1.50
2009,09,20,02,01,1.00
2009,09,20,02,02,3.90
2009,09,20,02,03,4.60
2009,09,20,02,04,5.40
2009,09,20,02,05,6.40
2009,09,20,02,06,7.20
2009,09,20,02,07,6.90
2009,09,20,02,08,3.60
2009,09,20,02,09,3.70
2009,09,20,02,10,5.90
2009,09,20,02,11,1.60
2009,09,20,02,12,1.30
2009,09,20,02,13,1.50
2009,09,20,02,14,0.20
2009,09,20,02,15,1.20
2009,09,20,02,16,0.40
2009,09,20,02,17,3.10
2009,09,20,02,18,1.00
2009,09,20,02,19,1.90
2009,09,20,02,20,0.10
2009,09,20,02,21,0.20
2009,09,20,02,22,3.50
2009,09,20,02,23,9.40
2009,09,20,02,24,6.30
2009,09,20,02,25,3.00
2009,09,20,02,26,2.30
2009,09,20,02,27,1.20
2009,09,20,02,28,6.50
2009,09,20,02,29,7.60
2009,09,20,02,30,8.00
2009,09,20,02,31,9.60
2009,09,20,02,32,8.60
2009,09,20,02,33,11.90
2009,09,20,02,34,5.70
2009,09,20,02,35,12.20
2009,09,20,02,36,7.20
2009,09,20,02,37,3.90
2009,09,20,02,38,3.50
2009,09,20,02,39,7.90
2009,09,20,02,40,5.50
2009,09,20,02,41,7.40
2009,09,20,02,42,6.30
2009,09,20,02,43,1.40
2009,09,20,02,44,8.50
2009,09,20,02,45,4.00
2009,09,20,02,46,5.40
2009,09,20,02,47,6.70
2009,09,20,02,48,5.40
2009,09,20,02,49,3.30
2009,09,20,02,50,4.50
2009,09,20,02,51,4.60
2009,09,20,02,52,1.80
2009,09,20,02,53,0.00
2009,09,20,02,54,0.40
2009,09,20,02,55,0.90
2009,09,20,02,56,1.60
2009,09,20,02,57,1.20
2009,09,20,02,58,0.30
2009,09,20,02,59,0.80
2009,09,20,03,00,2.90
2009,09,20,03,01,2.10
2009,09,20,03,02,4.60
2009,09,20,03,03,5.10
2009,09,20,03,04,0.80
2009,09,20,03,05,3.70
2009,09,20,03,06,1.80
2009,09,20,03,07,0.00
2009,09,20,03,08,0.10
2009,09,20,03,09,1.10
2009,09,20,03,10,0.00
2009,09,20,03,11,0.10
2009,09,20,03,12,0.10
2009,09,20,03,13,0.40
2009,09,20,03,14,1.50
2009,09,20,03,15,0.90
2009,09,20,03,16,0.90
2009,09,20,03,17,3.30
2009,09,20,03,18,2.10
2009,09,20,03,19,1.00
2009,09,20,03,20,3.90
2009,09,20,03,21,2.10
2009,09,20,03,22,1.50
2009,09,20,03,23,4.00
2009,09,20,03,24,2.20
2009,09,20,03,25,1.60
2009,09,20,03,26,3.50
2009,09,20,03,27,2.70
2009,09,20,03,28,6.80
2009,09,20,03,29,8.70
2009,09,20,03,30,4.00
2009,09,20,03,31,4.40
2009,09,20,03,32,2.40
2009,09,20,03,33,3.90
2009,09,20,03,34,6.10
2009,09,20,03,35,3.70
2009,09,20,03,36,0.10
2009,09,20,03,37,1.60
2009,09,20,03,38,3.20
2009,09,20,03,39,2.10
2009,09,20,03,40,3.10
2009,09,20,03,41,3.80
2009,09,20,03,42,0.60
2009,09,20,03,43,0.00
2009,09,20,03,44,1.70
2009,09,20,03,45,3.10
2009,09,20,03,46,4.40
2009,09,20,03,47,0.60
2009,09,20,03,48,0.70
2009,09,20,03,49,0.00
2009,09,20,03,50,1.70
2009,09,20,03,51,3.80
2009,09,20,03,52,6.80
2009,09,20,03,53,2.70
2009,09,20,03,54,3.70
2009,09,20,03,55,3.30
2009,09,20,03,56,3.50
2009,09,20,03,57,2.70
2009,09,20,03,58,2.10
2009,09,20,03,59,4.40
2009,09,20,04,00,1.70
2009,09,20,04,01,0.50
2009,09,20,04,02,1.70
2009,09,20,04,03,1.90
2009,09,20,04,04,3.90
2009,09,20,04,05,3.60
2009,09,20,04,06,1.90
2009,09,20,04,07,3.20
2009,09,20,04,08,4.20
2009,09,20,04,09,6.10
2009,09,20,04,10,6.40
2009,09,20,04,11,9.20
2009,09,20,04,12,10.00
2009,09,20,04,13,7.00
2009,09,20,04,14,4.00
2009,09,20,04,15,5.70
2009,09,20,04,16,7.80
2009,09,20,04,17,3.90
2009,09,20,04,18,7.50
2009,09,20,04,19,6.00
2009,09,20,04,20,4.70
2009,09,20,04,21,5.20
2009,09,20,04,22,4.70
2009,09,20,04,23,3.70
2009,09,20,04,24,5.90
2009,09,20,04,25,5.70
2009,09,20,04,26,3.60
2009,09,20,04,27,2.30
2009,09,20,04,28,6.40
2009,09,20,04,29,4.30
2009,09,20,04,30,3.20
2009,09,20,04,31,4.50
2009,09,20,04,32,6.20
2009,09,20,04,33,6.40
2009,09,20,04,34,9.70
2009,09,20,04,35,6.00
2009,09,20,04,36,4.30
2009,09,20,04,37,3.00
2009,09,20,04,38,5.60
2009,09,20,04,39,2.90
2009,09,20,04,40,4.10
2009,09,20,04,41,6.90
2009,09,20,04,42,4.90
2009,09,20,04,43,7.10
2009,09,20,04,44,2.90
2009,09,20,04,45,6.30
2009,09,20,04,46,6.40
2009,09,20,04,47,1.80
2009,09,20,04,48,6.20
2009,09,20,04,49,2.50
2009,09,20,04,50,0.20
2009,09,20,04,51,2.00
2009,09,20,04,52,3.60
2009,09,20,04,53,4.40
2009,09,20,04,54,4.50
2009,09,20,04,55,7.30
2009,09,20,04,56,9.90
2009,09,20,04,57,2.70
2009,09,20,04,58,2.60
2009,09,20,04,59,3.80
2009,09,20,05,00,3.10
2009,09,20,05,01,3.60
2009,09,20,05,02,1.30
2009,09,20,05,03,2.30
2009,09,20,05,04,2.10
2009,09,20,05,05,6.80
2009,09,20,05,06,0.80
2009,09,20,05,07,0.90
2009,09,20,05,08,0.80
2009,09,20,05,09,0.20
2009,09,20,05,10,2.90
2009,09,20,05,11,2.10
2009,09,20,05,12,1.50
2009,09,20,05,13,6.40
2009,09,20,05,14,6.30
2009,09,20,05,15,3.90
2009,09,20,05,16,4.00
2009,09,20,05,17,3.30
2009,09,20,05,18,0.60
2009,09,20,05,19,3.90
2009,09,20,05,20,0.00
2009,09,20,05,21,2.50
2009,09,20,05,22,0.00
2009,09,20,05,23,0.00
2009,09,20,05,24,1.20
2009,09,20,05,25,1.60
2009,09,20,05,26,3.10
2009,09,20,05,27,2.20
2009,09,20,05,28,3.10
2009,09,20,05,29,2.80
2009,09,20,05,30,2.90
2009,09,20,05,31,2.60
2009,09,20,05,32,3.90
2009,09,20,05,33,3.40
2009,09,20,05,34,0.50
2009,09,20,05,35,2.80
2009,09,20,05,36,5.80
2009,09,20,05,37,4.60
2009,09,20,05,38,3.20
2009,09,20,05,39,3.70
2009,09,20,05,40,0.10
2009,09,20,05,41,2.20
2009,09,20,05,42,3.90
2009,09,20,05,43,2.50
2009,09,20,05,44,4.60
2009,09,20,05,45,2.10
2009,09,20,05,46,0.00
2009,09,20,05,47,0.90
2009,09,20,05,48,1.30
2009,09,20,05,49,3.90
2009,09,20,05,50,2.30
2009,09,20,05,51,0.40
2009,09,20,05,52,0.90
2009,09,20,05,53,2.10
2009,09,20,05,54,1.30
2009,09,20,05,55,2.40
2009,09,20,05,56,3.90
2009,09,20,05,57,1.30
2009,09,20,05,58,2.20
2009,09,20,05,59,2.60
2009,09,20,06,00,2.20
2009,09,20,06,01,0.90
2009,09,20,06,02,2.10
2009,09,20,06,03,0.00
2009,09,20,06,04,0.00
2009,09,20,06,05,0.20
2009,09,20,06,06,0.10
2009,09,20,06,07,0.00
2009,09,20,06,08,0.20
2009,09,20,06,09,0.00
2009,09,20,06,10,0.10
2009,09,20,06,11,0.20
2009,09,20,06,12,2.90
2009,09,20,06,13,5.60
2009,09,20,06,14,2.80
2009,09,20,06,15,4.90
2009,09,20,06,16,5.50
2009,09,20,06,17,0.40
2009,09,20,06,18,5.00
2009,09,20,06,19,4.10
2009,09,20,06,20,0.40
2009,09,20,06,21,0.00
2009,09,20,06,22,0.10
2009,09,20,06,23,0.50
2009,09,20,06,24,1.30
2009,09,20,06,25,2.20
2009,09,20,06,26,2.40
2009,09,20,06,27,2.00
2009,09,20,06,28,3.00
2009,09,20,06,29,5.00
2009,09,20,06,30,5.20
2009,09,20,06,31,3.10
2009,09,20,06,32,2.90
2009,09,20,06,33,5.50
2009,09,20,06,34,2.10
2009,09,20,06,35,3.60
2009,09,20,06,36,3.40
2009,09,20,06,37,1.70
2009,09,20,06,38,3.20
2009,09,20,06,39,2.70
2009,09,20,06,40,2.90
2009,09,20,06,41,3.00
2009,09,20,06,42,2.60
2009,09,20,06,43,3.00
2009,09,20,06,44,2.50
2009,09,20,06,45,1.20
2009,09,20,06,46,0.10
2009,09,20,06,47,2.50
2009,09,20,06,48,1.90
2009,09,20,06,49,1.60
2009,09,20,06,50,1.90
2009,09,20,06,51,0.70
2009,09,20,06,52,4.20
2009,09,20,06,53,2.50
2009,09,20,06,54,4.60
2009,09,20,06,55,5.00
2009,09,20,06,56,4.50
2009,09,20,06,57,5.70
2009,09,20,06,58,3.50
2009,09,20,06,59,2.10
2009,09,20,07,00,0.80
2009,09,20,07,01,4.20
2009,09,20,07,02,2.90
2009,09,20,07,03,1.30
2009,09,20,07,04,4.60
2009,09,20,07,05,4.60
2009,09,20,07,06,6.60
2009,09,20,07,07,2.40
2009,09,20,07,08,0.00
2009,09,20,07,09,0.00
2009,09,20,07,10,0.10
2009,09,20,07,11,1.50
2009,09,20,07,12,0.10
2009,09,20,07,13,0.70
2009,09,20,07,14,0.20
2009,09,20,07,15,0.40
2009,09,20,07,16,1.30
2009,09,20,07,17,2.60
2009,09,20,07,18,3.30
2009,09,20,07,19,1.20
2009,09,20,07,20,3.50
2009,09,20,07,21,1.90
2009,09,20,07,22,0.10
2009,09,20,07,23,0.10
2009,09,20,07,24,0.10
2009,09,20,07,25,0.10
2009,09,20,07,26,0.00
2009,09,20,07,27,0.00
2009,09,20,07,28,0.00
2009,09,20,07,29,0.00
2009,09,20,07,30,0.00
2009,09,20,07,31,0.00
2009,09,20,07,32,0.30
2009,09,20,07,33,0.00
2009,09,20,07,34,0.00
2009,09,20,07,35,0.40
2009,09,20,07,36,0.80
2009,09,20,07,37,0.00
2009,09,20,07,38,0.00
2009,09,20,07,39,0.90
2009,09,20,07,40,0.30
2009,09,20,07,41,0.40
2009,09,20,07,42,0.90
2009,09,20,07,43,2.20
2009,09,20,07,44,1.40
2009,09,20,07,45,0.40
2009,09,20,07,46,0.20
2009,09,20,07,47,4.20
2009,09,20,07,48,2.60
2009,09,20,07,49,2.20
2009,09,20,07,50,1.10
2009,09,20,07,51,4.50
2009,09,20,07,52,0.90
2009,09,20,07,53,5.50
2009,09,20,07,54,3.10
2009,09,20,07,55,0.10
2009,09,20,07,56,0.50
2009,09,20,07,57,0.60
2009,09,20,07,58,0.00
2009,09,20,07,59,0.80
2009,09,20,08,00,1.40
2009,09,20,08,01,0.30
2009,09,20,08,02,3.10
2009,09,20,08,03,4.40
2009,09,20,08,04,5.20
2009,09,20,08,05,5.40
2009,09,20,08,06,6.70
2009,09,20,08,07,8.20
2009,09,20,08,08,1.70
2009,09,20,08,09,0.20
2009,09,20,08,10,0.20
2009,09,20,08,11,0.00
2009,09,20,08,12,3.40
2009,09,20,08,13,4.00
2009,09,20,08,14,2.50
2009,09,20,08,15,0.00
2009,09,20,08,16,0.60
2009,09,20,08,17,0.90
2009,09,20,08,18,0.30
2009,09,20,08,19,0.10
2009,09,20,08,20,0.10
2009,09,20,08,21,0.00
2009,09,20,08,22,0.00
2009,09,20,08,23,0.00
2009,09,20,08,24,0.10
2009,09,20,08,25,0.00
2009,09,20,08,26,0.00
2009,09,20,08,27,0.00
2009,09,20,08,28,0.10
2009,09,20,08,29,0.00
2009,09,20,08,30,0.00
2009,09,20,08,31,0.00
2009,09,20,08,32,1.00
2009,09,20,08,33,0.40
2009,09,20,08,34,0.00
2009,09,20,08,35,1.10
2009,09,20,08,36,0.50
2009,09,20,08,37,1.60
2009,09,20,08,38,1.20
2009,09,20,08,39,1.70
2009,09,20,08,40,1.90
2009,09,20,08,41,1.60
2009,09,20,08,42,4.20
2009,09,20,08,43,0.60
2009,09,20,08,44,4.40
2009,09,20,08,45,2.50
2009,09,20,08,46,0.40
2009,09,20,08,47,0.20
2009,09,20,08,48,1.20
2009,09,20,08,49,3.00
2009,09,20,08,50,2.00
2009,09,20,08,51,2.10
2009,09,20,08,52,0.80
2009,09,20,08,53,3.50
2009,09,20,08,54,4.30
2009,09,20,08,55,0.80
2009,09,20,08,56,2.70
2009,09,20,08,57,0.50
2009,09,20,08,58,3.10
2009,09,20,08,59,0.60
2009,09,20,09,00,3.70
2009,09,20,09,01,1.10
2009,09,20,09,02,0.20
2009,09,20,09,03,2.90
2009,09,20,09,04,0.30
2009,09,20,09,05,2.60
2009,09,20,09,06,1.50
2009,09,20,09,07,1.80
2009,09,20,09,08,1.80
2009,09,20,09,09,3.30
2009,09,20,09,10,2.70
2009,09,20,09,11,2.40
2009,09,20,09,12,1.30
2009,09,20,09,13,0.90
2009,09,20,09,14,3.10
2009,09,20,09,15,0.20
2009,09,20,09,16,2.00
2009,09,20,09,17,1.40
2009,09,20,09,18,6.00
2009,09,20,09,19,2.30
2009,09,20,09,20,2.40
2009,09,20,09,21,0.90
2009,09,20,09,22,1.40
2009,09,20,09,23,0.40
2009,09,20,09,24,8.40
2009,09,20,09,25,9.50
2009,09,20,09,26,4.30
2009,09,20,09,27,3.10
2009,09,20,09,28,3.70
2009,09,20,09,29,5.00
2009,09,20,09,30,3.80
2009,09,20,09,31,5.30
2009,09,20,09,32,8.70
2009,09,20,09,33,4.70
2009,09,20,09,34,7.20
2009,09,20,09,35,3.90
2009,09,20,09,36,6.60
2009,09,20,09,37,5.10
2009,09,20,09,38,2.40
2009,09,20,09,39,5.80
2009,09,20,09,40,4.90
2009,09,20,09,41,5.90
2009,09,20,09,42,3.70
2009,09,20,09,43,0.80
2009,09,20,09,44,4.20
2009,09,20,09,45,4.40
2009,09,20,09,46,3.70
2009,09,20,09,47,8.40
2009,09,20,09,48,4.10
2009,09,20,09,49,0.70
2009,09,20,09,50,0.40
2009,09,20,09,51,0.10
2009,09,20,09,52,2.00
2009,09,20,09,53,0.20
2009,09,20,09,54,2.90
2009,09,20,09,55,4.70
2009,09,20,09,56,6.20
2009,09,20,09,57,2.20
2009,09,20,09,58,6.10
2009,09,20,09,59,2.50
2009,09,20,10,00,2.40
2009,09,20,10,01,0.80
2009,09,20,10,02,5.00
2009,09,20,10,03,3.40
2009,09,20,10,04,3.10
2009,09,20,10,05,3.70
2009,09,20,10,06,0.70
2009,09,20,10,07,1.10
2009,09,20,10,08,1.50
2009,09,20,10,09,3.90
2009,09,20,10,10,0.00
2009,09,20,10,11,0.20
2009,09,20,10,12,2.90
2009,09,20,10,13,2.90
2009,09,20,10,14,3.60
2009,09,20,10,15,0.80
2009,09,20,10,16,1.40
2009,09,20,10,17,3.40
2009,09,20,10,18,3.00
2009,09,20,10,19,2.50
2009,09,20,10,20,2.40
2009,09,20,10,21,1.10
2009,09,20,10,22,3.90
2009,09,20,10,23,2.10
2009,09,20,10,24,3.30
2009,09,20,10,25,2.40
2009,09,20,10,26,3.00
2009,09,20,10,27,3.00
2009,09,20,10,28,1.50
2009,09,20,10,29,0.30
2009,09,20,10,30,4.30
2009,09,20,10,31,1.80
2009,09,20,10,32,1.80
2009,09,20,10,33,2.00
2009,09,20,10,34,0.90
2009,09,20,10,35,2.90
2009,09,20,10,36,2.80
2009,09,20,10,37,2.70
2009,09,20,10,38,0.40
2009,09,20,10,39,1.20
2009,09,20,10,40,6.70
2009,09,20,10,41,3.10
2009,09,20,10,42,1.70
2009,09,20,10,43,0.70
2009,09,20,10,44,6.80
2009,09,20,10,45,4.60
2009,09,20,10,46,5.70
2009,09,20,10,47,4.20
2009,09,20,10,48,2.90
2009,09,20,10,49,3.50
2009,09,20,10,50,3.50
2009,09,20,10,51,2.40
2009,09,20,10,52,4.30
2009,09,20,10,53,2.40
2009,09,20,10,54,2.10
2009,09,20,10,55,1.90
2009,09,20,10,56,1.90
2009,09,20,10,57,2.40
2009,09,20,10,58,3.70
2009,09,20,10,59,4.30
2009,09,20,11,00,2.90
2009,09,20,11,01,2.70
2009,09,20,11,02,3.60
2009,09,20,11,03,0.70
2009,09,20,11,04,4.70
2009,09,20,11,05,8.90
2009,09,20,11,06,3.20
2009,09,20,11,07,6.10
2009,09,20,11,08,5.20
2009,09,20,11,09,2.90
2009,09,20,11,10,5.50
2009,09,20,11,11,2.10
2009,09,20,11,12,3.30
2009,09,20,11,13,2.60
2009,09,20,11,14,0.30
2009,09,20,11,15,1.20
2009,09,20,11,16,1.10
2009,09,20,11,17,0.70
2009,09,20,11,18,4.20
2009,09,20,11,19,2.10
2009,09,20,11,20,2.80
2009,09,20,11,21,0.80
2009,09,20,11,22,1.30
2009,09,20,11,23,2.10
2009,09,20,11,24,0.70
2009,09,20,11,25,2.10
2009,09,20,11,26,3.20
2009,09,20,11,27,4.30
2009,09,20,11,28,3.60
2009,09,20,11,29,4.90
2009,09,20,11,30,2.90
2009,09,20,11,31,2.60
2009,09,20,11,32,2.50
2009,09,20,11,33,2.20
2009,09,20,11,34,5.40
2009,09,20,11,35,3.60
2009,09,20,11,36,1.70
2009,09,20,11,37,1.20
2009,09,20,11,38,2.30
2009,09,20,11,39,2.00
2009,09,20,11,40,4.60
2009,09,20,11,41,7.50
2009,09,20,11,42,2.60
2009,09,20,11,43,1.00
2009,09,20,11,44,1.70
2009,09,20,11,45,2.90
2009,09,20,11,46,1.90
2009,09,20,11,47,2.10
2009,09,20,11,48,3.20
2009,09,20,11,49,4.10
2009,09,20,11,50,3.70
2009,09,20,11,51,3.40
2009,09,20,11,52,3.70
2009,09,20,11,53,1.10
2009,09,20,11,54,1.40
2009,09,20,11,55,1.20
2009,09,20,11,56,4.90
2009,09,20,11,57,5.70
2009,09,20,11,58,3.00
2009,09,20,11,59,1.70
2009,09,20,12,00,5.10
2009,09,20,12,01,0.60
2009,09,20,12,02,2.30
2009,09,20,12,03,3.60
2009,09,20,12,04,2.00
2009,09,20,12,05,5.60
2009,09,20,12,06,3.00
2009,09,20,12,07,1.10
2009,09,20,12,08,3.00
2009,09,20,12,09,4.50
2009,09,20,12,10,1.60
2009,09,20,12,11,4.70
2009,09,20,12,12,3.50
2009,09,20,12,13,2.00
2009,09,20,12,14,4.10
2009,09,20,12,15,6.20
2009,09,20,12,16,2.50
2009,09,20,12,17,2.70
2009,09,20,12,18,1.30
2009,09,20,12,19,3.80
2009,09,20,12,20,3.20
2009,09,20,12,21,3.70
2009,09,20,12,22,3.10
2009,09,20,12,23,4.00
2009,09,20,12,24,3.10
2009,09,20,12,25,4.50
2009,09,20,12,26,8.60
2009,09,20,12,27,10.10
2009,09,20,12,28,8.20
2009,09,20,12,29,5.10
2009,09,20,12,30,5.30
2009,09,20,12,31,3.10
2009,09,20,12,32,2.60
2009,09,20,12,33,3.40
2009,09,20,12,34,4.10
2009,09,20,12,35,5.70
2009,09,20,12,36,5.40
2009,09,20,12,37,4.70
2009,09,20,12,38,4.40
2009,09,20,12,39,7.20
2009,09,20,12,40,6.50
2009,09,20,12,41,4.70
2009,09,20,12,42,2.70
2009,09,20,12,43,3.90
2009,09,20,12,44,4.80
2009,09,20,12,45,6.90
2009,09,20,12,46,4.80
2009,09,20,12,47,7.90
2009,09,20,12,48,3.60
2009,09,20,12,49,3.30
2009,09,20,12,50,2.30
2009,09,20,12,51,2.00
2009,09,20,12,52,5.30
2009,09,20,12,53,8.90
2009,09,20,12,54,8.00
2009,09,20,12,55,1.60
2009,09,20,12,56,1.60
2009,09,20,12,57,1.10
2009,09,20,12,58,5.00
2009,09,20,12,59,3.90
2009,09,20,13,00,2.00
2009,09,20,13,01,0.90
2009,09,20,13,02,1.20
2009,09,20,13,03,1.40
2009,09,20,13,04,2.90
2009,09,20,13,05,1.30
2009,09,20,13,06,0.40
2009,09,20,13,07,0.10
2009,09,20,13,08,0.20
2009,09,20,13,09,0.70
2009,09,20,13,10,0.00
2009,09,20,13,11,0.40
2009,09,20,13,12,0.70
2009,09,20,13,13,2.80
2009,09,20,13,14,2.00
2009,09,20,13,15,10.10
2009,09,20,13,16,7.30
2009,09,20,13,17,1.30
2009,09,20,13,18,0.10
2009,09,20,13,19,0.10
2009,09,20,13,20,4.10
2009,09,20,13,21,7.20
2009,09,20,13,22,6.40
2009,09,20,13,23,7.40
2009,09,20,13,24,11.10
2009,09,20,13,25,8.70
2009,09,20,13,26,3.90
2009,09,20,13,27,7.10
2009,09,20,13,28,5.40
2009,09,20,13,29,2.50
2009,09,20,13,30,3.90
2009,09,20,13,31,6.60
2009,09,20,13,32,4.10
2009,09,20,13,33,1.40
2009,09,20,13,34,1.30
2009,09,20,13,35,2.20
2009,09,20,13,36,0.40
2009,09,20,13,37,5.30
2009,09,20,13,38,4.30
2009,09,20,13,39,1.20
2009,09,20,13,40,1.10
2009,09,20,13,41,1.60
2009,09,20,13,42,2.50
2009,09,20,13,43,3.60
2009,09,20,13,44,3.80
2009,09,20,13,45,4.90
2009,09,20,13,46,3.60
2009,09,20,13,47,0.50
2009,09,20,13,48,3.20
2009,09,20,13,49,6.30
2009,09,20,13,50,3.30
2009,09,20,13,51,1.60
2009,09,20,13,52,0.70
2009,09,20,13,53,1.00
2009,09,20,13,54,2.50
2009,09,20,13,55,1.00
2009,09,20,13,56,2.40
2009,09,20,13,57,1.20
2009,09,20,13,58,4.50
2009,09,20,13,59,1.50
2009,09,20,14,00,2.60
2009,09,20,14,01,5.10
2009,09,20,14,02,1.80
2009,09,20,14,03,3.20
2009,09,20,14,04,7.20
2009,09,20,14,05,4.10
2009,09,20,14,06,4.40
2009,09,20,14,07,3.40
2009,09,20,14,08,5.10
2009,09,20,14,09,4.60
2009,09,20,14,10,4.30
2009,09,20,14,11,2.70
2009,09,20,14,12,2.90
2009,09,20,14,13,7.50
2009,09,20,14,14,4.80
2009,09,20,14,15,7.50
2009,09,20,14,16,6.10
2009,09,20,14,17,5.80
2009,09,20,14,18,5.30
2009,09,20,14,19,2.60
2009,09,20,14,20,3.40
2009,09,20,14,21,8.10
2009,09,20,14,22,3.50
2009,09,20,14,23,0.40
2009,09,20,14,24,3.80
2009,09,20,14,25,6.80
2009,09,20,14,26,2.20
2009,09,20,14,27,3.70
2009,09,20,14,28,3.80
2009,09,20,14,29,0.80
2009,09,20,14,30,4.00
2009,09,20,14,31,4.80
2009,09,20,14,32,6.30
2009,09,20,14,33,3.30
2009,09,20,14,34,4.00
2009,09,20,14,35,2.60
2009,09,20,14,36,1.20
2009,09,20,14,37,2.70
2009,09,20,14,38,0.20
2009,09,20,14,39,0.50
2009,09,20,14,40,1.40
2009,09,20,14,41,3.40
2009,09,20,14,42,3.50
2009,09,20,14,43,2.90
2009,09,20,14,44,8.80
2009,09,20,14,45,6.20
2009,09,20,14,46,4.30
2009,09,20,14,47,5.50
2009,09,20,14,48,7.30
2009,09,20,14,49,6.20
2009,09,20,14,50,5.50
2009,09,20,14,51,5.10
2009,09,20,14,52,7.90
2009,09,20,14,53,5.50
2009,09,20,14,54,8.10
2009,09,20,14,55,5.20
2009,09,20,14,56,8.00
2009,09,20,14,57,3.10
2009,09,20,14,58,7.80
2009,09,20,14,59,4.30
2009,09,20,15,00,3.90
2009,09,20,15,01,5.80
2009,09,20,15,02,0.90
2009,09,20,15,03,3.20
2009,09,20,15,04,5.90
2009,09,20,15,05,1.10
2009,09,20,15,06,1.30
2009,09,20,15,07,1.90
2009,09,20,15,08,0.90
2009,09,20,15,09,0.90
2009,09,20,15,10,1.10
2009,09,20,15,11,2.20
2009,09,20,15,12,0.10
2009,09,20,15,13,1.50
2009,09,20,15,14,2.40
2009,09,20,15,15,2.60
2009,09,20,15,16,0.40
2009,09,20,15,17,4.20
2009,09,20,15,18,4.20
2009,09,20,15,19,0.40
2009,09,20,15,20,6.60
2009,09,20,15,21,4.80
2009,09,20,15,22,7.20
2009,09,20,15,23,11.10
2009,09,20,15,24,6.80
2009,09,20,15,25,3.20
2009,09,20,15,26,7.00
2009,09,20,15,27,11.10
2009,09,20,15,28,4.00
2009,09,20,15,29,5.90
2009,09,20,15,30,4.80
2009,09,20,15,31,7.60
2009,09,20,15,32,5.90
2009,09,20,15,33,13.20
2009,09,20,15,34,7.50
2009,09,20,15,35,9.70
2009,09,20,15,36,9.00
2009,09,20,15,37,6.40
2009,09,20,15,38,5.70
2009,09,20,15,39,6.10
2009,09,20,15,40,9.10
2009,09,20,15,41,4.70
2009,09,20,15,42,4.40
2009,09,20,15,43,6.30
2009,09,20,15,44,7.20
2009,09,20,15,45,5.80
2009,09,20,15,46,5.10
2009,09,20,15,47,4.20
2009,09,20,15,48,5.10
2009,09,20,15,49,6.50
2009,09,20,15,50,6.20
2009,09,20,15,51,7.60
2009,09,20,15,52,6.40
2009,09,20,15,53,4.60
2009,09,20,15,54,5.60
2009,09,20,15,55,7.20
2009,09,20,15,56,6.60
2009,09,20,15,57,3.00
2009,09,20,15,58,6.40
2009,09,20,15,59,1.90
2009,09,20,16,00,8.60
2009,09,20,16,01,7.50
2009,09,20,16,02,6.30
2009,09,20,16,03,3.30
2009,09,20,16,04,8.80
2009,09,20,16,05,4.70
2009,09,20,16,06,6.60
2009,09,20,16,07,4.00
2009,09,20,16,08,3.20
2009,09,20,16,09,1.80
2009,09,20,16,10,1.80
2009,09,20,16,11,5.10
2009,09,20,16,12,5.00
2009,09,20,16,13,2.40
2009,09,20,16,14,5.10
2009,09,20,16,15,4.30
2009,09,20,16,16,4.30
2009,09,20,16,17,4.50
2009,09,20,16,18,6.30
2009,09,20,16,19,7.40
2009,09,20,16,20,3.90
2009,09,20,16,21,5.00
2009,09,20,16,22,8.40
2009,09,20,16,23,7.10
2009,09,20,16,24,6.50
2009,09,20,16,25,5.80
2009,09,20,16,26,8.70
2009,09,20,16,27,6.20
2009,09,20,16,28,6.00
2009,09,20,16,29,6.80
2009,09,20,16,30,4.60
2009,09,20,16,31,5.90
2009,09,20,16,32,4.80
2009,09,20,16,33,2.70
2009,09,20,16,34,1.80
2009,09,20,16,35,2.40
2009,09,20,16,36,6.30
2009,09,20,16,37,7.10
2009,09,20,16,38,2.70
2009,09,20,16,39,5.30
2009,09,20,16,40,1.00
2009,09,20,16,41,1.20
2009,09,20,16,42,3.90
2009,09,20,16,43,4.50
2009,09,20,16,44,2.30
2009,09,20,16,45,2.20
2009,09,20,16,46,3.30
2009,09,20,16,47,0.90
2009,09,20,16,48,3.80
2009,09,20,16,49,2.80
2009,09,20,16,50,3.30
2009,09,20,16,51,5.40
2009,09,20,16,52,1.70
2009,09,20,16,53,4.40
2009,09,20,16,54,5.00
2009,09,20,16,55,1.80
2009,09,20,16,56,4.10
2009,09,20,16,57,2.20
2009,09,20,16,58,0.50
2009,09,20,16,59,1.00
2009,09,20,17,00,1.40
2009,09,20,17,01,0.40
2009,09,20,17,02,2.70
2009,09,20,17,03,2.50
2009,09,20,17,04,1.00
2009,09,20,17,05,0.20
2009,09,20,17,06,1.00
2009,09,20,17,07,1.30
2009,09,20,17,08,1.00
2009,09,20,17,09,2.10
2009,09,20,17,10,0.40
2009,09,20,17,11,2.10
2009,09,20,17,12,0.40
2009,09,20,17,13,0.60
2009,09,20,17,14,2.10
2009,09,20,17,15,1.30
2009,09,20,17,16,2.70
2009,09,20,17,17,2.00
2009,09,20,17,18,1.10
2009,09,20,17,19,1.80
2009,09,20,17,20,1.30
2009,09,20,17,21,0.00
2009,09,20,17,22,0.00
2009,09,20,17,23,0.00
2009,09,20,17,24,0.00
2009,09,20,17,25,0.10
2009,09,20,17,26,1.00
2009,09,20,17,27,2.60
2009,09,20,17,28,0.40
2009,09,20,17,29,0.50
2009,09,20,17,30,1.00
2009,09,20,17,31,0.10
2009,09,20,17,32,0.70
2009,09,20,17,33,1.20
2009,09,20,17,34,2.20
2009,09,20,17,35,0.40
2009,09,20,17,36,0.40
2009,09,20,17,37,4.10
2009,09,20,17,38,1.90
2009,09,20,17,39,0.60
2009,09,20,17,40,0.00
2009,09,20,17,41,1.30
2009,09,20,17,42,1.60
2009,09,20,17,43,0.20
2009,09,20,17,44,0.30
2009,09,20,17,45,0.10
2009,09,20,17,46,1.00
2009,09,20,17,47,1.20
2009,09,20,17,48,1.00
2009,09,20,17,49,0.00
2009,09,20,17,50,0.00
2009,09,20,17,51,0.40
2009,09,20,17,52,0.00
2009,09,20,17,53,0.00
2009,09,20,17,54,0.00
2009,09,20,17,55,0.00
2009,09,20,17,56,0.10
2009,09,20,17,57,0.00
2009,09,20,17,58,0.30
2009,09,20,17,59,0.00
2009,09,20,18,00,0.00
2009,09,20,18,01,0.00
2009,09,20,18,02,0.00
2009,09,20,18,03,0.00
2009,09,20,18,04,2.30